Creek Data

    Home     View Charts     View Raw Data     Messages

ID Distance Battery Voltage Battery Current Internal Temp Internal Humidity External Temp Solar Input rssi snr Time Stamp Record
32252 13.8 3.81 0 57 41 59 5.1 -88 5 02/13/2025 10:15 AM 13922
32251 13.8 3.81 0 56 41 57 5.1 -99 5 02/13/2025 10:00 AM 13921
32250 13.8 3.87 0 56 40 57 5.1 -94 5 02/13/2025 09:45 AM 13920
32249 0.0 3.82 0 55 40 55 5.1 -95 6 02/13/2025 09:30 AM 13919
32248 13.8 3.82 0 54 41 56 5.1 -86 7 02/13/2025 09:15 AM 13918
32247 13.7 3.84 0 53 41 54 5.1 -85 8 02/13/2025 09:00 AM 13917
32246 13.7 3.86 26 52 41 53 4.6 -85 8 02/13/2025 08:45 AM 13916
32245 13.7 3.71 0 52 41 52 4.5 -86 8 02/13/2025 08:30 AM 13915
32244 13.7 3.71 0 52 41 52 4.5 -88 7 02/13/2025 08:15 AM 13914
32243 13.7 3.83 0 52 41 52 4.5 -89 6 02/13/2025 08:00 AM 13913
32242 13.7 3.68 -9 51 41 52 4.5 -86 8 02/13/2025 07:45 AM 13912
32241 13.7 3.82 -7 51 41 52 1.6 -85 8 02/13/2025 07:30 AM 13911
32240 13.7 3.69 -5 51 41 52 1.4 -84 8 02/13/2025 07:15 AM 13910
32239 13.7 3.68 -5 51 41 52 1 -85 7 02/13/2025 07:00 AM 13909
32238 13.7 3.83 -5 51 41 52 0.1 -85 7 02/13/2025 06:45 AM 13908
32237 13.7 3.70 -5 51 41 52 0 -85 7 02/13/2025 06:30 AM 13907
32236 13.7 3.70 -5 51 41 52 0.1 -86 7 02/13/2025 06:15 AM 13906
32235 13.7 3.84 -5 51 41 52 0 -84 8 02/13/2025 06:00 AM 13905
32234 13.8 3.69 -5 50 41 51 0.1 -86 8 02/13/2025 05:45 AM 13904
32233 13.7 3.69 -5 50 41 51 0 -84 7 02/13/2025 05:30 AM 13903
32232 13.7 3.70 -35 50 40 51 0 -84 8 02/13/2025 05:15 AM 13902
32231 13.7 3.83 -5 50 40 51 0 -84 8 02/13/2025 05:00 AM 13901
32230 13.8 3.83 -5 50 40 51 0 -85 7 02/13/2025 04:45 AM 13900
32229 13.6 3.67 -5 50 40 51 0 -85 7 02/13/2025 04:30 AM 13899
32228 13.5 3.67 -5 50 40 51 0 -81 8 02/13/2025 04:15 AM 13898